Time,TemperatureF,DewpointF,PressureIn,WindDirection,WindDirectionDegrees,WindSpeedMPH,WindSpeedGustMPH,Humidity,HourlyPrecipIn,Conditions,Clouds,dailyrainin,SoftwareType,DateUTC
2013-02-21 00:03:00,25.0,-99.9,-100.00,NNW,343,13.0,22.0,-999,-99.99,,,-99.99,,2013-02-21 05:03:00,
2013-02-21 00:12:00,25.0,-99.9,-100.00,NNW,343,13.0,22.0,-999,-99.99,,,-99.99,,2013-02-21 05:12:00,
2013-02-21 00:22:00,25.0,-99.9,-100.00,NNW,343,13.0,22.0,-999,-99.99,,,-99.99,,2013-02-21 05:22:00,
2013-02-21 00:38:00,25.0,-99.9,-100.00,NNW,343,13.0,22.0,-999,-99.99,,,-99.99,,2013-02-21 05:38:00,
2013-02-21 00:47:00,25.0,-99.9,-100.00,NNW,343,13.0,22.0,-999,-99.99,,,-99.99,,2013-02-21 05:47:00,
2013-02-21 01:52:00,27.0,-99.9,-100.00,NNW,332,14.0,20.0,-999,-99.99,,,-99.99,,2013-02-21 06:52:00,
2013-02-21 02:01:00,27.0,-99.9,-100.00,NNW,332,14.0,20.0,-999,-99.99,,,-99.99,,2013-02-21 07:01:00,
2013-02-21 02:11:00,27.0,-99.9,-100.00,NNW,332,14.0,20.0,-999,-99.99,,,-99.99,,2013-02-21 07:11:00,
2013-02-21 02:22:00,24.0,-99.9,-100.00,NE,56,3.0,4.0,-999,-99.99,,,-99.99,,2013-02-21 07:22:00,
2013-02-21 02:32:00,25.0,-99.9,-100.00,NE,49,2.0,20.0,-999,-99.99,,,-99.99,,2013-02-21 07:32:00,
2013-02-21 02:42:00,25.0,-99.9,-100.00,NE,49,2.0,20.0,-999,-99.99,,,-99.99,,2013-02-21 07:42:00,
2013-02-21 02:52:00,25.0,-99.9,-100.00,NE,49,2.0,20.0,-999,-99.99,,,-99.99,,2013-02-21 07:52:00,
2013-02-21 03:02:00,25.0,-99.9,-100.00,NE,49,2.0,20.0,-999,-99.99,,,-99.99,,2013-02-21 08:02:00,
2013-02-21 03:11:00,25.0,-99.9,-100.00,NE,49,2.0,20.0,-999,-99.99,,,-99.99,,2013-02-21 08:11:00,
2013-02-21 03:22:00,24.0,-99.9,-100.00,ENE,74,4.0,8.0,-999,-99.99,,,-99.99,,2013-02-21 08:22:00,
2013-02-21 03:32:00,24.0,-99.9,-100.00,NE,36,3.0,8.0,-999,-99.99,,,-99.99,,2013-02-21 08:32:00,
2013-02-21 03:42:00,24.0,-99.9,-100.00,NE,36,3.0,8.0,-999,-99.99,,,-99.99,,2013-02-21 08:42:00,
2013-02-21 03:52:00,24.0,-99.9,-100.00,NE,36,3.0,8.0,-999,-99.99,,,-99.99,,2013-02-21 08:52:00,
2013-02-21 04:02:00,24.0,-99.9,-100.00,NE,36,3.0,8.0,-999,-99.99,,,-99.99,,2013-02-21 09:02:00,
2013-02-21 04:10:00,24.0,-99.9,-100.00,East,85,2.0,10.0,-999,-99.99,,,-99.99,,2013-02-21 09:10:00,
2013-02-21 04:11:00,24.0,-99.9,-100.00,NE,36,3.0,8.0,-999,-99.99,,,-99.99,,2013-02-21 09:11:00,
2013-02-21 04:22:00,24.0,-99.9,-100.00,NNE,18,3.0,6.0,-999,-99.99,,,-99.99,,2013-02-21 09:22:00,
2013-02-21 04:32:00,24.0,-99.9,-100.00,East,85,2.0,10.0,-999,-99.99,,,-99.99,,2013-02-21 09:32:00,
2013-02-21 04:42:00,24.0,-99.9,-100.00,East,85,2.0,10.0,-999,-99.99,,,-99.99,,2013-02-21 09:42:00,
2013-02-21 04:52:00,24.0,-99.9,-100.00,East,85,2.0,10.0,-999,-99.99,,,-99.99,,2013-02-21 09:52:00,
2013-02-21 05:01:00,24.0,-99.9,-100.00,East,85,2.0,10.0,-999,-99.99,,,-99.99,,2013-02-21 10:01:00,
2013-02-21 06:31:00,25.0,-99.9,-100.00,North,6,9.0,17.0,-999,-99.99,,,-99.99,,2013-02-21 11:31:00,
2013-02-21 06:42:00,23.0,-99.9,-100.00,NE,54,3.0,6.0,-999,-99.99,,,-99.99,,2013-02-21 11:42:00,
2013-02-21 06:52:00,23.0,-99.9,-100.00,NE,44,3.0,7.0,-999,-99.99,,,-99.99,,2013-02-21 11:52:00,
2013-02-21 07:01:00,23.0,-99.9,-100.00,NE,44,3.0,7.0,-999,-99.99,,,-99.99,,2013-02-21 12:01:00,
2013-02-21 07:11:00,23.0,-99.9,-100.00,NE,44,3.0,7.0,-999,-99.99,,,-99.99,,2013-02-21 12:11:00,
2013-02-21 07:22:00,22.0,-99.9,-100.00,NE,42,2.0,6.0,-999,-99.99,,,-99.99,,2013-02-21 12:22:00,
2013-02-21 07:32:00,22.0,-99.9,-100.00,NE,42,2.0,6.0,-999,-99.99,,,-99.99,,2013-02-21 12:32:00,
2013-02-21 07:43:00,22.0,-99.9,-100.00,NE,42,2.0,6.0,-999,-99.99,,,-99.99,,2013-02-21 12:43:00,
2013-02-21 07:53:00,22.0,-99.9,-100.00,NE,53,2.0,8.0,-999,-99.99,,,-99.99,,2013-02-21 12:53:00,
2013-02-21 08:02:00,22.0,-99.9,-100.00,NE,53,2.0,8.0,-999,-99.99,,,-99.99,,2013-02-21 13:02:00,
2013-02-21 08:12:00,22.0,-99.9,-100.00,NE,53,2.0,8.0,-999,-99.99,,,-99.99,,2013-02-21 13:12:00,
2013-02-21 08:22:00,22.0,-99.9,-100.00,ENE,59,3.0,6.0,-999,-99.99,,,-99.99,,2013-02-21 13:22:00,
2013-02-21 08:32:00,22.0,-99.9,-100.00,ENE,59,3.0,6.0,-999,-99.99,,,-99.99,,2013-02-21 13:32:00,
2013-02-21 08:42:00,22.0,-99.9,-100.00,ENE,59,3.0,6.0,-999,-99.99,,,-99.99,,2013-02-21 13:42:00,
2013-02-21 08:52:00,22.0,-99.9,-100.00,ENE,78,2.0,9.0,-999,-99.99,,,-99.99,,2013-02-21 13:52:00,
2013-02-21 09:02:00,22.0,-99.9,-100.00,ENE,78,2.0,9.0,-999,-99.99,,,-99.99,,2013-02-21 14:02:00,
2013-02-21 09:11:00,22.0,-99.9,-100.00,ENE,78,2.0,9.0,-999,-99.99,,,-99.99,,2013-02-21 14:11:00,
2013-02-21 09:22:00,23.0,-99.9,-100.00,ENE,74,2.0,5.0,-999,-99.99,,,-99.99,,2013-02-21 14:22:00,
2013-02-21 09:32:00,23.0,-99.9,-100.00,ENE,74,2.0,5.0,-999,-99.99,,,-99.99,,2013-02-21 14:32:00,
2013-02-21 09:42:00,23.0,-99.9,-100.00,ENE,74,2.0,5.0,-999,-99.99,,,-99.99,,2013-02-21 14:42:00,
2013-02-21 09:52:00,23.0,-99.9,-100.00,ENE,58,2.0,7.0,-999,-99.99,,,-99.99,,2013-02-21 14:52:00,
2013-02-21 10:02:00,23.0,-99.9,-100.00,ENE,58,2.0,7.0,-999,-99.99,,,-99.99,,2013-02-21 15:02:00,
2013-02-21 10:12:00,23.0,-99.9,-100.00,ENE,58,2.0,7.0,-999,-99.99,,,-99.99,,2013-02-21 15:12:00,
2013-02-21 10:22:00,24.0,-99.9,-100.00,ENE,63,4.0,7.0,-999,-99.99,,,-99.99,,2013-02-21 15:22:00,
2013-02-21 10:32:00,24.0,-99.9,-100.00,ENE,70,2.0,7.0,-999,-99.99,,,-99.99,,2013-02-21 15:32:00,
2013-02-21 10:42:00,24.0,-99.9,-100.00,ENE,70,2.0,7.0,-999,-99.99,,,-99.99,,2013-02-21 15:42:00,
2013-02-21 10:52:00,24.0,-99.9,-100.00,ENE,70,2.0,7.0,-999,-99.99,,,-99.99,,2013-02-21 15:52:00,
2013-02-21 11:02:00,24.0,-99.9,-100.00,ENE,70,2.0,7.0,-999,-99.99,,,-99.99,,2013-02-21 16:02:00,
2013-02-21 11:10:00,25.0,-99.9,-100.00,ENE,66,5.0,8.0,-999,-99.99,,,-99.99,,2013-02-21 16:10:00,
2013-02-21 11:12:00,24.0,-99.9,-100.00,ENE,70,2.0,7.0,-999,-99.99,,,-99.99,,2013-02-21 16:12:00,
2013-02-21 11:22:00,25.0,-99.9,-100.00,NE,49,4.0,7.0,-999,-99.99,,,-99.99,,2013-02-21 16:22:00,
2013-02-21 11:32:00,25.0,-99.9,-100.00,ENE,66,5.0,8.0,-999,-99.99,,,-99.99,,2013-02-21 16:32:00,
2013-02-21 11:42:00,25.0,-99.9,-100.00,ENE,66,5.0,8.0,-999,-99.99,,,-99.99,,2013-02-21 16:42:00,
2013-02-21 11:52:00,25.0,-99.9,-100.00,ENE,66,5.0,8.0,-999,-99.99,,,-99.99,,2013-02-21 16:52:00,
2013-02-21 12:02:00,25.0,-99.9,-100.00,ENE,66,5.0,8.0,-999,-99.99,,,-99.99,,2013-02-21 17:02:00,
2013-02-21 12:22:00,27.0,-99.9,-100.00,East,81,3.0,6.0,-999,-99.99,,,-99.99,,2013-02-21 17:22:00,
2013-02-21 12:32:00,27.0,-99.9,-100.00,East,81,3.0,6.0,-999,-99.99,,,-99.99,,2013-02-21 17:32:00,
2013-02-21 12:42:00,27.0,-99.9,-100.00,East,81,3.0,8.0,-999,-99.99,,,-99.99,,2013-02-21 17:42:00,
2013-02-21 12:52:00,27.0,-99.9,-100.00,East,81,3.0,8.0,-999,-99.99,,,-99.99,,2013-02-21 17:52:00,
2013-02-21 13:02:00,27.0,-99.9,-100.00,East,81,3.0,8.0,-999,-99.99,,,-99.99,,2013-02-21 18:02:00,
2013-02-21 13:12:00,27.0,-99.9,-100.00,East,81,3.0,8.0,-999,-99.99,,,-99.99,,2013-02-21 18:12:00,
2013-02-21 13:22:00,26.0,-99.9,-100.00,NNE,32,3.0,11.0,-999,-99.99,,,-99.99,,2013-02-21 18:22:00,
2013-02-21 13:32:00,26.0,-99.9,-100.00,NNE,32,3.0,11.0,-999,-99.99,,,-99.99,,2013-02-21 18:32:00,
2013-02-21 13:42:00,26.0,-99.9,-100.00,NNE,32,3.0,11.0,-999,-99.99,,,-99.99,,2013-02-21 18:42:00,
2013-02-21 13:52:00,26.0,-99.9,-100.00,NNE,32,3.0,11.0,-999,-99.99,,,-99.99,,2013-02-21 18:52:00,
2013-02-21 14:02:00,26.0,-99.9,-100.00,NNE,32,3.0,11.0,-999,-99.99,,,-99.99,,2013-02-21 19:02:00,
2013-02-21 14:12:00,26.0,-99.9,-100.00,NNE,32,3.0,11.0,-999,-99.99,,,-99.99,,2013-02-21 19:12:00,
2013-02-21 14:22:00,27.0,-99.9,-100.00,NE,38,4.0,7.0,-999,-99.99,,,-99.99,,2013-02-21 19:22:00,
2013-02-21 14:32:00,27.0,-99.9,-100.00,NE,38,4.0,7.0,-999,-99.99,,,-99.99,,2013-02-21 19:32:00,
2013-02-21 14:42:00,27.0,-99.9,-100.00,NE,38,4.0,10.0,-999,-99.99,,,-99.99,,2013-02-21 19:42:00,
2013-02-21 14:52:00,27.0,-99.9,-100.00,NE,38,4.0,10.0,-999,-99.99,,,-99.99,,2013-02-21 19:52:00,
2013-02-21 15:01:00,27.0,-99.9,-100.00,NE,38,4.0,10.0,-999,-99.99,,,-99.99,,2013-02-21 20:01:00,
2013-02-21 15:11:00,27.0,-99.9,-100.00,NE,38,4.0,10.0,-999,-99.99,,,-99.99,,2013-02-21 20:11:00,
2013-02-21 15:22:00,27.0,-99.9,-100.00,ENE,65,4.0,9.0,-999,-99.99,,,-99.99,,2013-02-21 20:22:00,
2013-02-21 15:32:00,27.0,-99.9,-100.00,ENE,65,4.0,9.0,-999,-99.99,,,-99.99,,2013-02-21 20:32:00,
2013-02-21 15:42:00,27.0,-99.9,-100.00,ENE,65,4.0,12.0,-999,-99.99,,,-99.99,,2013-02-21 20:42:00,
2013-02-21 15:53:00,27.0,-99.9,-100.00,ENE,65,4.0,12.0,-999,-99.99,,,-99.99,,2013-02-21 20:53:00,
2013-02-21 16:02:00,27.0,-99.9,-100.00,ENE,65,4.0,12.0,-999,-99.99,,,-99.99,,2013-02-21 21:02:00,
2013-02-21 16:12:00,27.0,-99.9,-100.00,ENE,65,4.0,12.0,-999,-99.99,,,-99.99,,2013-02-21 21:12:00,
2013-02-21 16:22:00,27.0,-99.9,-100.00,East,79,4.0,10.0,-999,-99.99,,,-99.99,,2013-02-21 21:22:00,
2013-02-21 16:32:00,27.0,-99.9,-100.00,East,79,4.0,10.0,-999,-99.99,,,-99.99,,2013-02-21 21:32:00,
2013-02-21 16:42:00,27.0,-99.9,-100.00,East,79,4.0,12.0,-999,-99.99,,,-99.99,,2013-02-21 21:42:00,
2013-02-21 16:52:00,27.0,-99.9,-100.00,East,79,4.0,12.0,-999,-99.99,,,-99.99,,2013-02-21 21:52:00,
2013-02-21 17:02:00,27.0,-99.9,-100.00,East,79,4.0,12.0,-999,-99.99,,,-99.99,,2013-02-21 22:02:00,
2013-02-21 17:11:00,27.0,-99.9,-100.00,East,79,4.0,12.0,-999,-99.99,,,-99.99,,2013-02-21 22:11:00,
2013-02-21 17:22:00,27.0,-99.9,-100.00,NE,37,4.0,11.0,-999,-99.99,,,-99.99,,2013-02-21 22:22:00,
2013-02-21 17:32:00,27.0,-99.9,-100.00,NE,37,4.0,11.0,-999,-99.99,,,-99.99,,2013-02-21 22:32:00,
2013-02-21 17:42:00,27.0,-99.9,-100.00,NE,37,4.0,11.0,-999,-99.99,,,-99.99,,2013-02-21 22:42:00,
2013-02-21 17:52:00,27.0,-99.9,-100.00,NE,55,4.0,11.0,-999,-99.99,,,-99.99,,2013-02-21 22:52:00,
2013-02-21 18:01:00,27.0,-99.9,-100.00,NE,55,4.0,11.0,-999,-99.99,,,-99.99,,2013-02-21 23:01:00,
2013-02-21 18:11:00,27.0,-99.9,-100.00,NE,55,4.0,11.0,-999,-99.99,,,-99.99,,2013-02-21 23:11:00,
2013-02-21 18:22:00,27.0,-99.9,-100.00,NE,40,3.0,6.0,-999,-99.99,,,-99.99,,2013-02-21 23:22:00,
2013-02-21 18:32:00,27.0,-99.9,-100.00,NE,40,3.0,6.0,-999,-99.99,,,-99.99,,2013-02-21 23:32:00,
2013-02-21 18:42:00,27.0,-99.9,-100.00,NE,40,3.0,6.0,-999,-99.99,,,-99.99,,2013-02-21 23:42:00,
2013-02-21 18:53:00,27.0,-99.9,-100.00,NNE,29,2.0,12.0,-999,-99.99,,,-99.99,,2013-02-21 23:53:00,
2013-02-21 19:02:00,27.0,-99.9,-100.00,NNE,29,2.0,12.0,-999,-99.99,,,-99.99,,2013-02-22 00:02:00,
2013-02-21 19:11:00,27.0,-99.9,-100.00,NNE,29,2.0,12.0,-999,-99.99,,,-99.99,,2013-02-22 00:11:00,
2013-02-21 19:22:00,27.0,-99.9,-100.00,NE,39,3.0,7.0,-999,-99.99,,,-99.99,,2013-02-22 00:22:00,
2013-02-21 19:32:00,27.0,-99.9,-100.00,NE,39,3.0,7.0,-999,-99.99,,,-99.99,,2013-02-22 00:32:00,
2013-02-21 19:42:00,27.0,-99.9,-100.00,NE,39,3.0,7.0,-999,-99.99,,,-99.99,,2013-02-22 00:42:00,
2013-02-21 19:52:00,27.0,-99.9,-100.00,ENE,68,1.0,11.0,-999,-99.99,,,-99.99,,2013-02-22 00:52:00,
2013-02-21 20:01:00,27.0,-99.9,-100.00,ENE,68,1.0,11.0,-999,-99.99,,,-99.99,,2013-02-22 01:01:00,
2013-02-21 20:11:00,27.0,-99.9,-100.00,ENE,68,1.0,11.0,-999,-99.99,,,-99.99,,2013-02-22 01:11:00,
2013-02-21 20:22:00,26.0,-99.9,-100.00,NNE,32,2.0,9.0,-999,-99.99,,,-99.99,,2013-02-22 01:22:00,
2013-02-21 20:32:00,26.0,-99.9,-100.00,NNE,32,2.0,9.0,-999,-99.99,,,-99.99,,2013-02-22 01:32:00,
2013-02-21 20:42:00,26.0,-99.9,-100.00,NNE,32,2.0,9.0,-999,-99.99,,,-99.99,,2013-02-22 01:42:00,
2013-02-21 20:52:00,26.0,-99.9,-100.00,NE,39,4.0,12.0,-999,-99.99,,,-99.99,,2013-02-22 01:52:00,
2013-02-21 21:02:00,26.0,-99.9,-100.00,NE,39,4.0,12.0,-999,-99.99,,,-99.99,,2013-02-22 02:02:00,
2013-02-21 21:11:00,26.0,-99.9,-100.00,NE,39,4.0,12.0,-999,-99.99,,,-99.99,,2013-02-22 02:11:00,
2013-02-21 21:22:00,26.0,-99.9,-100.00,NE,39,3.0,9.0,-999,-99.99,,,-99.99,,2013-02-22 02:22:00,
2013-02-21 21:32:00,26.0,-99.9,-100.00,NE,36,3.0,14.0,-999,-99.99,,,-99.99,,2013-02-22 02:32:00,
2013-02-21 21:42:00,26.0,-99.9,-100.00,NE,36,3.0,14.0,-999,-99.99,,,-99.99,,2013-02-22 02:42:00,
2013-02-21 21:52:00,26.0,-99.9,-100.00,NE,36,3.0,14.0,-999,-99.99,,,-99.99,,2013-02-22 02:52:00,
2013-02-21 22:02:00,26.0,-99.9,-100.00,NE,36,3.0,14.0,-999,-99.99,,,-99.99,,2013-02-22 03:02:00,
2013-02-21 22:11:00,26.0,-99.9,-100.00,NE,36,3.0,14.0,-999,-99.99,,,-99.99,,2013-02-22 03:11:00,
2013-02-21 22:22:00,26.0,-99.9,-100.00,ENE,73,4.0,11.0,-999,-99.99,,,-99.99,,2013-02-22 03:22:00,
2013-02-21 22:32:00,26.0,-99.9,-100.00,ENE,73,4.0,11.0,-999,-99.99,,,-99.99,,2013-02-22 03:32:00,
2013-02-21 22:42:00,26.0,-99.9,-100.00,ENE,73,4.0,11.0,-999,-99.99,,,-99.99,,2013-02-22 03:42:00,
2013-02-21 22:52:00,26.0,-99.9,-100.00,NNE,25,1.0,11.0,-999,-99.99,,,-99.99,,2013-02-22 03:52:00,
2013-02-21 23:02:00,26.0,-99.9,-100.00,NNE,25,1.0,11.0,-999,-99.99,,,-99.99,,2013-02-22 04:02:00,
2013-02-21 23:11:00,26.0,-99.9,-100.00,NNE,25,1.0,11.0,-999,-99.99,,,-99.99,,2013-02-22 04:11:00,
2013-02-21 23:22:00,25.0,-99.9,-100.00,ENE,60,5.0,16.0,-999,-99.99,,,-99.99,,2013-02-22 04:22:00,
2013-02-21 23:32:00,25.0,-99.9,-100.00,ENE,60,5.0,16.0,-999,-99.99,,,-99.99,,2013-02-22 04:32:00,
2013-02-21 23:42:00,25.0,-99.9,-100.00,ENE,60,5.0,16.0,-999,-99.99,,,-99.99,,2013-02-22 04:42:00,
2013-02-21 23:52:00,25.0,-99.9,-100.00,ENE,65,6.0,16.0,-999,-99.99,,,-99.99,,2013-02-22 04:52:00,